Location: Newark
(43.4306°N, 0.3089°E)
Time: 08:04:02
(UTC+00:00)

Transit 2A Rocket - Pass Details

Date: 03 September 2019
Orbit: 592 x 911 km, 66.7° (Epoch: 15 September)

Event Time Altitude Azimuth Distance (km) Brightness Sun altitude
Rises 23:13:31 0° 340° (NNW) 3,014 9.0 -38.2°
Reaches altitude 10° 23:17:03 10° 6° (N) 2,035 7.8 -38.3°
Enters shadow 23:17:42 12° 14° (NNE) 1,917 7.6 -38.4°
